Estación de Imperial Alto
Ultimos registro cada 15 minutos 30
| N° | Estación | Fecha / Hora | Temperatura | Humedad | Lluvia | Velocidad | Dirección | Radiación | Presion |
| 30 | Imperial Alto | 04-05-2026 07:30 | 11,4 | 76 | 0 | 0 | 49 | 11 | 1013,6 |
| 29 | Imperial Alto | 04-05-2026 07:15 | 11,7 | 76 | 0 | 0 | 56 | 5 | 1013,5 |
| 28 | Imperial Alto | 04-05-2026 07:00 | 11,7 | 76 | 0 | 0 | 62 | 0 | 1013,5 |
| 27 | Imperial Alto | 04-05-2026 06:45 | 11,6 | 77 | 0 | 0 | 27 | 0 | 1013,4 |
| 26 | Imperial Alto | 04-05-2026 06:30 | 11,7 | 77 | 0 | 0 | 22 | 0 | 1013,4 |
| 25 | Imperial Alto | 04-05-2026 06:15 | 11,9 | 75 | 0 | 0 | 232 | 0 | 1013,3 |
| 24 | Imperial Alto | 04-05-2026 06:00 | 12,4 | 74 | 0 | 0 | 200 | 0 | 1013,3 |
| 23 | Imperial Alto | 04-05-2026 05:45 | 12,9 | 72 | 0 | 0 | 200 | 0 | 1013,2 |
| 22 | Imperial Alto | 04-05-2026 05:30 | 13,1 | 74 | 0 | 1,3 | 157 | 0 | 1013,1 |
| 21 | Imperial Alto | 04-05-2026 05:15 | 13,1 | 75 | 0 | 0,9 | 124 | 0 | 1013,2 |
| 20 | Imperial Alto | 04-05-2026 05:00 | 12,8 | 75 | 0 | 1,8 | 162 | 0 | 1013,1 |
| 19 | Imperial Alto | 04-05-2026 04:30 | 12,6 | 74 | 0 | 2,2 | 167 | 0 | 1013,3 |
| 18 | Imperial Alto | 04-05-2026 04:15 | 12,6 | 75 | 0 | 1,3 | 168 | 0 | 1013,3 |
| 17 | Imperial Alto | 04-05-2026 04:00 | 12,5 | 74 | 0 | 1,8 | 160 | 0 | 1013,2 |
| 16 | Imperial Alto | 04-05-2026 03:45 | 12,4 | 75 | 0 | 1,8 | 165 | 0 | 1013,3 |
| 15 | Imperial Alto | 04-05-2026 03:30 | 12,8 | 73 | 0 | 0 | 60 | 0 | 1013,3 |
| 14 | Imperial Alto | 04-05-2026 03:15 | 12,9 | 73 | 0 | 0 | 63 | 0 | 1013 |
| 13 | Imperial Alto | 04-05-2026 03:00 | 13,3 | 72 | 0 | 0 | 172 | 0 | 1012,8 |
| 12 | Imperial Alto | 04-05-2026 02:45 | 13,6 | 72 | 0 | 0 | 120 | 0 | 1012,8 |
| 11 | Imperial Alto | 04-05-2026 02:30 | 13,7 | 71 | 0 | 0 | 180 | 0 | 1013 |
| 10 | Imperial Alto | 04-05-2026 02:15 | 13,6 | 72 | 0 | 0,9 | 124 | 0 | 1012,9 |
| 9 | Imperial Alto | 04-05-2026 02:00 | 13,2 | 73 | 0 | 1,8 | 151 | 0 | 1012,8 |
| 8 | Imperial Alto | 04-05-2026 01:45 | 12,9 | 73 | 0 | 1,8 | 159 | 0 | 1012,9 |
| 7 | Imperial Alto | 04-05-2026 01:30 | 12,6 | 75 | 0 | 0 | 84 | 0 | 1012,9 |
| 6 | Imperial Alto | 04-05-2026 01:15 | 12,7 | 74 | 0 | 0 | 57 | 0 | 1013,1 |
| 5 | Imperial Alto | 04-05-2026 01:00 | 12,9 | 72 | 0 | 0 | 167 | 0 | 1013,2 |
| 4 | Imperial Alto | 04-05-2026 00:45 | 13,5 | 71 | 0 | 0 | 150 | 0 | 1012,9 |
| 3 | Imperial Alto | 04-05-2026 00:30 | 13,1 | 74 | 0 | 0 | 145 | 0 | 1012,8 |
| 2 | Imperial Alto | 04-05-2026 00:15 | 13,1 | 72 | 0 | 0 | 165 | 0 | 1012,9 |
| 1 | Imperial Alto | 04-05-2026 00:00 | 13,3 | 73 | 0 | 0,9 | 156 | 0 | 1013 |